"Pseudo-MPEC" for P11JuqO

Created 2023 Sep 20 17:22:28 UT using Find_Orb

Click here for an explanation of pseudo-MPECs

 
 Astrometry: 
     P11JuqO* C2023 09 14't=+gn8XAstrometryS4u#@UyJkK6ie*redacted;(=$SFqclickF51
     P11JuqO  C2023 09 14C'k`f2hereT$ka%%\(E8'I]-9rw.x;2+a)NiN4UaB4R]m1@OV20YF51
     P11JuqO  C2023 09 14I=MO5J]heos'RJforZ6%A3mMp`^6explanation5nNK=!-%]uk,nF51

Station data:
(F51) Pan-STARRS 1, Haleakala  (N20.707234 W156.255910)  US/Hawaii.
   Observers J. Bulger, T. Lowe, A. Schultz, M. Willman. Measurers K.
   Chambers, S. Chastel, T. de Boer, L. Denneau, J. Fairlamb, H. Flewelling,
   M. Huber, C.-C. Lin, E. Magnier, Y. Ramanjooloo, R. Wainscoat, R. Weryk.
   1.8-m Ritchey-Chrétien + CCD.

Orbital elements:  P11JuqO
   Perihelion 2024 Jan 17.71717 +/- 125 TT = 17:12:43 (JD 2460327.21717)
Epoch 2023 Sep 14.0 TT = JDT 2460201.5   Earth MOID: 0.3178   Ma: 0.0971
M 265.56065583 +/- 90               (J2000 ecliptic)             AutoNEOCP
n   0.75120481 +/- 0.406            Peri.  328.85434 +/- 70
a   1.19847912 +/- 0.431            Node   166.39570 +/- 35
e   0.5280716 +/- 0.239             Incl.   30.38367 +/- 34
P   1.31/479.22d           H 21.23  G  0.15   U 12.2  SR
q 0.56559622 +/- 0.469    Q 1.83136202 +/- 21.5
From 3 observations 2023 Sept. 14 (50.6 min); mean residual 0".16
Residuals in arcseconds: 
230914 F51  .05+  .10+    230914 F51  .14-  .29-    230914 F51  .09+  .19+    

Ephemerides (geocentric):
Date (UTC) HH   RA             Dec           delta  r     elong  mag " sig PA
---- --------  ------------   ------------  ------ ------ -----  --- --------
2023 09 20 17  23 10 40.689   -16 35 02.98  .49296 1.4807 161.8 21.3  32d  82
2023 09 20 18  23 10 33.993   -16 37 29.71  .49287 1.4805 161.7 21.3  32d  82
2023 09 20 19  23 10 27.293   -16 39 56.44  .49278 1.4802 161.7 21.3  32d  82
2023 09 20 20  23 10 20.590   -16 42 23.17  .49269 1.4799 161.6 21.3  32d  82
2023 09 20 21  23 10 13.884   -16 44 49.90  .49260 1.4797 161.5 21.3  32d  82
2023 09 20 22  23 10 07.174   -16 47 16.63  .49251 1.4794 161.4 21.3  32d  82
2023 09 20 23  23 10 00.461   -16 49 43.36  .49242 1.4792 161.3 21.3  32d  82
2023 09 21 00  23 09 53.744   -16 52 10.09  .49233 1.4789 161.2 21.3  32d  82
2023 09 21 01  23 09 47.024   -16 54 36.81  .49225 1.4787 161.2 21.3  32d  82
2023 09 21 02  23 09 40.300   -16 57 03.54  .49216 1.4784 161.1 21.3  32d  81
2023 09 21 03  23 09 33.574   -16 59 30.26  .49207 1.4782 161.0 21.3  32d  81
2023 09 21 04  23 09 26.843   -17 01 56.98  .49199 1.4779 160.9 21.3  32d  81
2023 09 21 05  23 09 20.110   -17 04 23.69  .49190 1.4777 160.8 21.3  32d  81
2023 09 21 06  23 09 13.373   -17 06 50.41  .49182 1.4774 160.8 21.3  32d  81
2023 09 21 07  23 09 06.633   -17 09 17.11  .49174 1.4772 160.7 21.3  32d  81
2023 09 21 08  23 08 59.889   -17 11 43.81  .49165 1.4769 160.6 21.3  32d  81
2023 09 21 09  23 08 53.143   -17 14 10.51  .49157 1.4767 160.5 21.3  32d  81
2023 09 21 10  23 08 46.393   -17 16 37.20  .49149 1.4764 160.4 21.3  32d  82
2023 09 21 11  23 08 39.639   -17 19 03.88  .49141 1.4762 160.3 21.3  32d  82
2023 09 21 12  23 08 32.883   -17 21 30.56  .49133 1.4759 160.3 21.3  32d  82
2023 09 21 13  23 08 26.123   -17 23 57.22  .49125 1.4757 160.2 21.3  32d  82
2023 09 21 14  23 08 19.361   -17 26 23.88  .49117 1.4754 160.1 21.3  32d  82
2023 09 21 15  23 08 12.595   -17 28 50.53  .49109 1.4752 160.0 21.3  32d  82
2023 09 21 16  23 08 05.826   -17 31 17.17  .49101 1.4749 159.9 21.3  32d  82
2023 09 21 17  23 07 59.054   -17 33 43.80  .49094 1.4747 159.8 21.3  32d  82
2023 09 21 18  23 07 52.279   -17 36 10.42  .49086 1.4744 159.8 21.3  32d  82
2023 09 21 19  23 07 45.500   -17 38 37.03  .49078 1.4742 159.7 21.3  32d  82
2023 09 21 20  23 07 38.719   -17 41 03.63  .49071 1.4739 159.6 21.3  32d  82
2023 09 21 21  23 07 31.935   -17 43 30.22  .49063 1.4736 159.5 21.3  32d  82
2023 09 21 22  23 07 25.147   -17 45 56.79  .49056 1.4734 159.4 21.3  32d  82
2023 09 21 23  23 07 18.357   -17 48 23.35  .49048 1.4731 159.3 21.3  32d  83
2023 09 22 00  23 07 11.563   -17 50 49.90  .49041 1.4729 159.3 21.3  32d  83
2023 09 22 01  23 07 04.767   -17 53 16.43  .49034 1.4726 159.2 21.3  32d  83
2023 09 22 02  23 06 57.968   -17 55 42.95  .49027 1.4724 159.1 21.3  32d  83
2023 09 22 03  23 06 51.166   -17 58 09.45  .49020 1.4721 159.0 21.3  33d  83
2023 09 22 04  23 06 44.360   -18 00 35.93  .49013 1.4719 158.9 21.3  33d  83
2023 09 22 05  23 06 37.552   -18 03 02.40  .49006 1.4716 158.9 21.3  33d  83
2023 09 22 06  23 06 30.742   -18 05 28.86  .48999 1.4714 158.8 21.3  33d  83
2023 09 22 07  23 06 23.928   -18 07 55.29  .48992 1.4711 158.7 21.3  33d  83
2023 09 22 08  23 06 17.111   -18 10 21.71  .48985 1.4709 158.6 21.3  33d  84
2023 09 22 09  23 06 10.292   -18 12 48.11  .48978 1.4706 158.5 21.3  33d  84
2023 09 22 10  23 06 03.470   -18 15 14.49  .48971 1.4703 158.4 21.3  33d  84
2023 09 22 11  23 05 56.645   -18 17 40.86  .48965 1.4701 158.4 21.3  33d  84
2023 09 22 12  23 05 49.817   -18 20 07.20  .48958 1.4698 158.3 21.3  33d  84
2023 09 22 13  23 05 42.987   -18 22 33.52  .48952 1.4696 158.2 21.3  33d  84
2023 09 22 14  23 05 36.154   -18 24 59.82  .48945 1.4693 158.1 21.3  33d  84
2023 09 22 15  23 05 29.318   -18 27 26.10  .48939 1.4691 158.0 21.3  34d  84
2023 09 22 16  23 05 22.480   -18 29 52.36  .48932 1.4688 157.9 21.3  34d  84